VOI1691 MMGL-MMMX

Flight info

Callsign VOI1691
Flight time 0h 52m
Altitude 33000
Route EMIRI1B EMIRI UT119 ESPOS ESPOS3A
Aircraft A21N/M-SDE2E3FGHIRWXY/LB1

Departure

Time 2026-05-06 01:57
Airport Guadalajara International Airport (MMGL)

Arrival

Time 2026-05-06 02:49
Airport Mexico City Benito Juárez International Airport (MMMX)
Time Latitude Longitude Altitude Speed Heading
2026-05-06 01:16 20.52494 -103.30304 5023 ft 0 kts 19°
2026-05-06 01:17 20.52493 -103.30304 5023 ft 0 kts 19°
2026-05-06 01:28 20.52492 -103.30304 5025 ft 0 kts 19°
2026-05-06 01:40 20.52486 -103.30306 5025 ft 4 kts 19°
2026-05-06 01:40 20.52462 -103.30317 5022 ft 4 kts 37°
2026-05-06 01:40 20.52448 -103.30337 5025 ft 4 kts 81°
2026-05-06 01:40 20.52449 -103.30360 5023 ft 1 kts 109°
2026-05-06 01:41 20.52450 -103.30364 5022 ft 1 kts 109°
2026-05-06 01:46 20.52448 -103.30355 5023 ft 3 kts 109°
2026-05-06 01:46 20.52434 -103.30317 5020 ft 8 kts 110°
2026-05-06 01:46 20.52407 -103.30252 5025 ft 11 kts 141°
2026-05-06 01:46 20.52327 -103.30239 5025 ft 12 kts 188°
2026-05-06 01:47 20.52274 -103.30255 5025 ft 6 kts 198°
2026-05-06 01:47 20.52266 -103.30258 5025 ft 0 kts 199°
2026-05-06 01:47 20.52257 -103.30262 5025 ft 4 kts 199°
2026-05-06 01:48 20.52218 -103.30269 5025 ft 8 kts 162°
2026-05-06 01:48 20.52175 -103.30211 5025 ft 13 kts 107°
2026-05-06 01:48 20.52136 -103.30107 5025 ft 17 kts 113°
2026-05-06 01:48 20.52090 -103.29973 5025 ft 21 kts 108°
2026-05-06 01:49 20.52037 -103.29857 5025 ft 16 kts 123°
2026-05-06 01:49 20.51969 -103.29749 5025 ft 20 kts 125°
2026-05-06 01:49 20.51834 -103.29556 5025 ft 1 kts 126°
2026-05-06 01:50 20.51831 -103.29552 5025 ft 1 kts 126°
2026-05-06 01:50 20.51817 -103.29531 5023 ft 6 kts 127°
2026-05-06 01:50 20.51782 -103.29485 5025 ft 10 kts 130°
2026-05-06 01:50 20.51730 -103.29412 5025 ft 15 kts 122°
2026-05-06 01:51 20.51668 -103.29317 5025 ft 16 kts 126°
2026-05-06 01:51 20.51606 -103.29236 5024 ft 14 kts 155°
2026-05-06 01:51 20.51522 -103.29225 5025 ft 6 kts 196°
2026-05-06 01:51 20.51512 -103.29229 5025 ft 0 kts 206°
2026-05-06 01:55 20.51455 -103.29261 5025 ft 14 kts 226°
2026-05-06 01:55 20.51445 -103.29359 5026 ft 8 kts 292°
2026-05-06 01:55 20.51446 -103.29362 5026 ft 0 kts 294°
2026-05-06 01:56 20.51475 -103.29432 5026 ft 38 kts 294°
2026-05-06 01:56 20.51681 -103.29939 5027 ft 109 kts 293°
2026-05-06 01:56 20.52056 -103.30860 5027 ft 152 kts 293°
2026-05-06 01:57 20.52495 -103.31908 5506 ft 157 kts 294°
2026-05-06 01:57 20.53078 -103.33021 6038 ft 185 kts 298°
2026-05-06 01:57 20.53673 -103.34310 6419 ft 199 kts 295°
2026-05-06 01:57 20.54245 -103.35684 6687 ft 212 kts 294°
2026-05-06 01:58 20.54854 -103.37169 6971 ft 225 kts 294°
2026-05-06 01:58 20.55491 -103.38742 7300 ft 237 kts 293°
2026-05-06 01:58 20.56161 -103.40397 7667 ft 247 kts 293°
2026-05-06 01:58 20.56847 -103.42086 8172 ft 250 kts 293°
2026-05-06 01:59 20.57546 -103.43817 8648 ft 256 kts 292°
2026-05-06 01:59 20.58258 -103.45578 9175 ft 260 kts 292°
2026-05-06 01:59 20.58960 -103.47338 9722 ft 262 kts 289°
2026-05-06 01:59 20.59246 -103.49292 10008 ft 273 kts 264°
2026-05-06 02:00 20.58637 -103.51248 10203 ft 287 kts 237°
2026-05-06 02:00 20.57206 -103.52805 10414 ft 303 kts 219°
2026-05-06 02:00 20.55328 -103.53960 10601 ft 321 kts 200°
2026-05-06 02:00 20.53103 -103.54304 10775 ft 339 kts 178°
2026-05-06 02:01 20.50772 -103.53666 10979 ft 357 kts 156°
2026-05-06 02:01 20.48685 -103.52109 11189 ft 377 kts 138°
2026-05-06 02:01 20.46952 -103.49921 11437 ft 391 kts 130°
2026-05-06 02:01 20.45261 -103.47629 11907 ft 393 kts 131°
2026-05-06 02:02 20.43514 -103.45376 12506 ft 393 kts 132°
2026-05-06 02:02 20.41730 -103.43171 13069 ft 393 kts 133°
2026-05-06 02:02 20.39915 -103.40973 13588 ft 394 kts 133°
2026-05-06 02:02 20.38116 -103.38815 13856 ft 395 kts 133°
2026-05-06 02:03 20.36276 -103.36618 14250 ft 400 kts 133°
2026-05-06 02:03 20.34414 -103.34398 14703 ft 402 kts 133°
2026-05-06 02:03 20.32541 -103.32162 15147 ft 405 kts 133°
2026-05-06 02:03 20.30658 -103.29916 15555 ft 408 kts 134°
2026-05-06 02:04 20.28758 -103.27654 16006 ft 411 kts 133°
2026-05-06 02:04 20.26847 -103.25374 16469 ft 413 kts 133°
2026-05-06 02:04 20.24927 -103.23084 16933 ft 414 kts 133°
2026-05-06 02:04 20.23023 -103.20815 17409 ft 416 kts 133°
2026-05-06 02:05 20.21089 -103.18514 17835 ft 418 kts 134°
2026-05-06 02:05 20.19131 -103.16185 18253 ft 420 kts 134°
2026-05-06 02:05 20.17173 -103.13855 18630 ft 422 kts 134°
2026-05-06 02:05 20.15206 -103.11518 19023 ft 424 kts 134°
2026-05-06 02:06 20.13253 -103.09215 19408 ft 425 kts 135°
2026-05-06 02:06 20.11087 -103.07069 19785 ft 426 kts 142°
2026-05-06 02:06 20.08721 -103.05172 20172 ft 426 kts 145°
2026-05-06 02:06 20.06304 -103.03307 20555 ft 428 kts 146°
2026-05-06 02:07 20.03891 -103.01450 20921 ft 430 kts 146°
2026-05-06 02:07 20.01464 -102.99571 21311 ft 431 kts 145°
2026-05-06 02:07 19.99039 -102.97684 21703 ft 433 kts 145°
2026-05-06 02:07 19.96748 -102.95646 22066 ft 437 kts 137°
2026-05-06 02:08 19.94789 -102.93153 22444 ft 442 kts 126°
2026-05-06 02:08 19.93307 -102.90246 22821 ft 448 kts 116°
2026-05-06 02:08 19.92131 -102.87166 23211 ft 450 kts 114°
2026-05-06 02:08 19.90989 -102.84051 23536 ft 452 kts 114°
2026-05-06 02:09 19.89831 -102.80925 23799 ft 455 kts 115°
2026-05-06 02:09 19.88670 -102.77839 24048 ft 457 kts 115°
2026-05-06 02:09 19.87481 -102.74701 24282 ft 460 kts 115°
2026-05-06 02:09 19.86281 -102.71546 24533 ft 462 kts 115°
2026-05-06 02:10 19.85064 -102.68361 24770 ft 465 kts 115°
2026-05-06 02:10 19.83849 -102.65175 25005 ft 468 kts 115°
2026-05-06 02:10 19.82619 -102.61956 25247 ft 470 kts 115°
2026-05-06 02:10 19.81382 -102.58721 25504 ft 472 kts 115°
2026-05-06 02:11 19.80160 -102.55525 25824 ft 472 kts 115°
2026-05-06 02:11 19.78927 -102.52291 26153 ft 472 kts 115°
2026-05-06 02:11 19.77688 -102.49053 26463 ft 472 kts 115°
2026-05-06 02:11 19.76447 -102.45820 26801 ft 472 kts 115°
2026-05-06 02:12 19.75206 -102.42582 27110 ft 473 kts 115°
2026-05-06 02:12 19.73963 -102.39349 27413 ft 474 kts 115°
2026-05-06 02:12 19.72718 -102.36108 27727 ft 474 kts 115°
2026-05-06 02:12 19.71471 -102.32854 28063 ft 475 kts 115°
2026-05-06 02:13 19.70223 -102.29602 28376 ft 474 kts 115°
2026-05-06 02:13 19.68976 -102.26361 28724 ft 474 kts 115°
2026-05-06 02:13 19.67752 -102.23177 29029 ft 474 kts 115°
2026-05-06 02:13 19.66503 -102.19929 29324 ft 474 kts 115°
2026-05-06 02:14 19.65254 -102.16687 29729 ft 474 kts 115°
2026-05-06 02:14 19.64000 -102.13436 30037 ft 474 kts 115°
2026-05-06 02:14 19.62766 -102.10235 30304 ft 475 kts 115°
2026-05-06 02:14 19.61513 -102.06987 30565 ft 475 kts 115°
2026-05-06 02:15 19.60261 -102.03743 30799 ft 475 kts 115°
2026-05-06 02:15 19.59011 -102.00507 31024 ft 475 kts 115°
2026-05-06 02:15 19.57753 -101.97259 31278 ft 475 kts 115°
2026-05-06 02:15 19.56499 -101.94018 31510 ft 475 kts 115°
2026-05-06 02:16 19.55241 -101.90772 31737 ft 475 kts 115°
2026-05-06 02:16 19.53986 -101.87532 31963 ft 474 kts 115°
2026-05-06 02:16 19.52731 -101.84290 32167 ft 475 kts 115°
2026-05-06 02:16 19.51477 -101.81054 32363 ft 475 kts 115°
2026-05-06 02:17 19.50215 -101.77800 32576 ft 475 kts 115°
2026-05-06 02:17 19.48957 -101.74562 32763 ft 475 kts 115°
2026-05-06 02:17 19.47716 -101.71372 32925 ft 475 kts 115°
2026-05-06 02:17 19.46448 -101.68115 32937 ft 475 kts 115°
2026-05-06 02:18 19.43933 -101.61652 32901 ft 473 kts 114°
2026-05-06 02:18 19.41425 -101.55208 32862 ft 473 kts 115°
2026-05-06 02:19 19.38920 -101.48786 32859 ft 474 kts 115°
2026-05-06 02:19 19.36404 -101.42338 32836 ft 474 kts 115°
2026-05-06 02:20 19.32620 -101.32663 32830 ft 473 kts 115°
2026-05-06 02:21 19.30097 -101.26227 32775 ft 472 kts 115°
2026-05-06 02:21 19.27576 -101.19799 32770 ft 472 kts 115°
2026-05-06 02:22 19.25051 -101.13367 32769 ft 472 kts 115°
2026-05-06 02:22 19.22545 -101.06994 32773 ft 472 kts 115°
2026-05-06 02:23 19.20017 -101.00571 32757 ft 472 kts 115°
2026-05-06 02:23 19.17914 -100.95235 32729 ft 472 kts 115°
2026-05-06 02:24 19.15379 -100.88811 32730 ft 472 kts 115°
2026-05-06 02:24 19.12841 -100.82385 32712 ft 472 kts 115°
2026-05-06 02:25 19.10303 -100.75967 32711 ft 472 kts 115°
2026-05-06 02:25 19.07781 -100.69595 32694 ft 472 kts 115°
2026-05-06 02:26 19.05238 -100.63179 32698 ft 472 kts 115°
2026-05-06 02:26 19.02693 -100.56773 32707 ft 472 kts 115°
2026-05-06 02:27 19.00151 -100.50384 32715 ft 471 kts 115°
2026-05-06 02:27 18.97633 -100.44045 32714 ft 471 kts 115°
2026-05-06 02:28 18.95091 -100.37653 32724 ft 471 kts 115°
2026-05-06 02:28 18.92543 -100.31267 32730 ft 471 kts 115°
2026-05-06 02:29 18.90016 -100.24933 32770 ft 470 kts 115°
2026-05-06 02:29 18.87476 -100.18569 32774 ft 469 kts 115°
2026-05-06 02:30 18.84940 -100.12241 32825 ft 465 kts 115°
2026-05-06 02:30 18.83686 -100.09115 32586 ft 461 kts 115°
2026-05-06 02:30 18.82426 -100.05975 32247 ft 466 kts 115°
2026-05-06 02:30 18.81170 -100.02846 31986 ft 467 kts 115°
2026-05-06 02:31 18.79899 -99.99685 31689 ft 467 kts 115°
2026-05-06 02:31 18.78631 -99.96524 31302 ft 467 kts 115°
2026-05-06 02:31 18.77366 -99.93372 30639 ft 464 kts 115°
2026-05-06 02:31 18.76107 -99.90235 29901 ft 463 kts 115°
2026-05-06 02:32 18.75016 -99.87042 28944 ft 466 kts 107°
2026-05-06 02:32 18.74489 -99.83640 28005 ft 470 kts 95°
2026-05-06 02:32 18.74652 -99.80188 27101 ft 474 kts 83°
2026-05-06 02:32 18.75509 -99.76821 26199 ft 478 kts 70°
2026-05-06 02:33 18.76822 -99.73643 25380 ft 478 kts 67°
2026-05-06 02:33 18.77762 -99.71493 24855 ft 477 kts 67°
2026-05-06 02:34 18.82255 -99.61080 22138 ft 456 kts 67°
2026-05-06 02:34 18.83548 -99.58043 21351 ft 451 kts 67°
2026-05-06 02:34 18.84812 -99.55063 20595 ft 446 kts 67°
2026-05-06 02:34 18.86072 -99.52088 19829 ft 441 kts 68°
2026-05-06 02:35 18.87314 -99.49151 19105 ft 436 kts 68°
2026-05-06 02:35 18.88545 -99.46243 18456 ft 429 kts 68°
2026-05-06 02:35 18.89746 -99.43405 17887 ft 416 kts 67°
2026-05-06 02:35 18.90925 -99.40614 17647 ft 415 kts 67°
2026-05-06 02:36 18.92088 -99.37862 17567 ft 414 kts 67°
2026-05-06 02:36 18.93259 -99.35085 17682 ft 414 kts 67°
2026-05-06 02:36 18.94434 -99.32298 17673 ft 414 kts 67°
2026-05-06 02:36 18.95606 -99.29504 17670 ft 414 kts 68°
2026-05-06 02:37 18.96443 -99.26605 17660 ft 413 kts 82°
2026-05-06 02:37 18.96438 -99.23586 17661 ft 412 kts 99°
2026-05-06 02:37 18.95573 -99.20714 17674 ft 413 kts 116°
2026-05-06 02:37 18.93912 -99.18224 17684 ft 415 kts 133°
2026-05-06 02:38 18.91657 -99.16329 17698 ft 417 kts 145°
2026-05-06 02:38 18.89336 -99.14487 17675 ft 414 kts 134°
2026-05-06 02:38 18.87594 -99.12097 17677 ft 412 kts 121°
2026-05-06 02:38 18.86337 -99.09430 17642 ft 411 kts 109°
2026-05-06 02:39 18.85735 -99.06500 17612 ft 408 kts 94°
2026-05-06 02:39 18.85878 -99.03510 17498 ft 407 kts 81°
2026-05-06 02:39 18.86727 -99.00695 16798 ft 403 kts 65°
2026-05-06 02:39 18.88253 -98.98222 16033 ft 403 kts 51°
2026-05-06 02:40 18.90326 -98.96226 15385 ft 407 kts 37°
2026-05-06 02:40 18.92835 -98.94822 14739 ft 409 kts 22°
2026-05-06 02:40 18.95602 -98.94131 14121 ft 410 kts
2026-05-06 02:40 18.98434 -98.94211 13707 ft 402 kts 352°
2026-05-06 02:41 19.01080 -98.94971 13538 ft 387 kts 342°
2026-05-06 02:41 19.03549 -98.95919 13502 ft 368 kts 340°
2026-05-06 02:41 19.05891 -98.96829 13552 ft 349 kts 341°
2026-05-06 02:41 19.08118 -98.97673 13554 ft 331 kts 341°
2026-05-06 02:42 19.10237 -98.98456 13584 ft 314 kts 342°
2026-05-06 02:42 19.12249 -98.99197 13603 ft 296 kts 342°
2026-05-06 02:42 19.14172 -98.99898 13637 ft 293 kts 343°
2026-05-06 02:42 19.16073 -99.00590 13693 ft 292 kts 342°
2026-05-06 02:43 19.17942 -99.01420 13755 ft 292 kts 328°
2026-05-06 02:43 19.19537 -99.02788 13641 ft 296 kts 317°
2026-05-06 02:43 19.21001 -99.04283 13337 ft 291 kts 316°
2026-05-06 02:43 19.22458 -99.05780 12838 ft 292 kts 316°
2026-05-06 02:44 19.23966 -99.07320 12280 ft 308 kts 315°
2026-05-06 02:44 19.25342 -99.09052 11728 ft 306 kts 307°
2026-05-06 02:44 19.26619 -99.10846 11179 ft 302 kts 307°
2026-05-06 02:44 19.27872 -99.12609 10626 ft 297 kts 307°
2026-05-06 02:45 19.29083 -99.14302 10287 ft 285 kts 307°
2026-05-06 02:45 19.30257 -99.15940 9989 ft 271 kts 307°
2026-05-06 02:45 19.31368 -99.17485 9879 ft 260 kts 307°
2026-05-06 02:45 19.32540 -99.18948 9811 ft 259 kts 323°
2026-05-06 02:46 19.34124 -99.19640 9672 ft 241 kts 355°
2026-05-06 02:46 19.35687 -99.19410 9428 ft 218 kts 20°
2026-05-06 02:46 19.36924 -99.18600 9241 ft 202 kts 44°
2026-05-06 02:46 19.37755 -99.17481 9033 ft 182 kts 59°
2026-05-06 02:47 19.38354 -99.16346 8907 ft 177 kts 61°
2026-05-06 02:47 19.38985 -99.15211 8900 ft 179 kts 61°
2026-05-06 02:47 19.39622 -99.14073 8898 ft 180 kts 61°
2026-05-06 02:47 19.40254 -99.12946 8697 ft 175 kts 61°
2026-05-06 02:48 19.40874 -99.11841 8337 ft 170 kts 60°
2026-05-06 02:48 19.41465 -99.10789 7971 ft 164 kts 60°
2026-05-06 02:48 19.42043 -99.09757 7693 ft 162 kts 59°
2026-05-06 02:48 19.42608 -99.08751 7463 ft 161 kts 59°
2026-05-06 02:49 19.43175 -99.07741 7313 ft 153 kts 59°
2026-05-06 02:49 19.43606 -99.06969 7307 ft 79 kts 60°
2026-05-06 02:49 19.43875 -99.06510 7308 ft 34 kts 46°
2026-05-06 02:49 19.44042 -99.06425 7308 ft 23 kts 36°
2026-05-06 02:50 19.44117 -99.06388 7308 ft 0 kts 25°
2026-05-06 02:50 19.44159 -99.06364 7308 ft 11 kts 28°
2026-05-06 02:50 19.44234 -99.06320 7308 ft 14 kts 28°
2026-05-06 02:50 19.44333 -99.06285 7307 ft 11 kts
2026-05-06 02:51 19.44398 -99.06347 7308 ft 0 kts 233°
2026-05-06 02:51 19.44394 -99.06354 7308 ft 2 kts 236°
2026-05-06 02:51 19.44392 -99.06358 7308 ft 2 kts 242°
2026-05-06 02:51 19.44327 -99.06488 7308 ft 23 kts 241°
2026-05-06 02:52 19.44242 -99.06637 7308 ft 25 kts 238°
2026-05-06 02:52 19.44160 -99.06800 7308 ft 26 kts 243°
2026-05-06 02:52 19.44113 -99.06886 7308 ft 0 kts 236°
2026-05-06 02:53 19.44102 -99.06904 7308 ft 15 kts 236°
2026-05-06 02:53 19.44040 -99.07012 7308 ft 18 kts 239°
2026-05-06 02:53 19.43952 -99.07169 7308 ft 35 kts 239°
2026-05-06 02:54 19.43827 -99.07387 7308 ft 36 kts 238°
2026-05-06 02:54 19.43696 -99.07615 7308 ft 37 kts 239°
2026-05-06 02:54 19.43570 -99.07843 7308 ft 31 kts 239°
2026-05-06 02:54 19.43553 -99.07971 7308 ft 17 kts 313°
2026-05-06 02:55 19.43585 -99.07994 7308 ft 0 kts 330°